Weather History for Chillicothe, MO

Change the Weather History Date:

Wednesday, July 24, 2013

  Actual Average (KIRK) Record (KIRK)
Temperature  
Mean Temperature 72 °F 76 °F  
Max Temperature 84 °F 86 °F 110 °F (1934)
Min Temperature 60 °F 65 °F 53 °F (1957)
Degree Days  
Heating Degree Days 0 0  
Month to date heating degree days 0  
Since 1 June heating degree days 16  
Since 1 July heating degree days 0  
Cooling Degree Days 7 11  
Month to date cooling degree days 239  
Year to date cooling degree days 493  
Since 1 June cooling degree days 431  
Growing Degree Days 22 (Base 50)    
Moisture  
Dew Point 58 °F    
Average Humidity 65    
Maximum Humidity 90    
Minimum Humidity 38    
Precipitation  
Precipitation 0.00 in 0.16 in 7.32 in (2008)
Month to date precipitation 3.53  
Year to date precipitation 22.46  
Sea Level Pressure  
Sea Level Pressure 30.01 in    
Wind  
Wind Speed 3 mph (NNE)    
Max Wind Speed 10 mph    
Max Gust Speed -    
T = Trace of Precipitation, MM = Missing Value Source: NWS Daily Summary

Daily Weather History Graph

Daily Weather History Graph

Search for Another Location

Airport:

Trip Planner

Search our weather history database for the weather conditions in past years. The results will help you decide how hot, cold, wet, or windy it might be!

Date:

Astronomy

Jul. 24, 2013 Rise Set
Actual Time 6:06 AM CDT 8:34 PM CDT
Civil Twilight 5:35 AM CDT 9:05 PM CDT
Nautical Twilight 4:56 AM CDT 9:44 PM CDT
Astronomical Twilight 4:14 AM CDT 10:26 PM CDT
Moon 9:41 PM CDT (7/24) 8:26 AM CDT (7/24)
Length of Visible Light 15h 30m
Length of Day
14h 28m
Waning Gibbous, 94% of the Moon is Illuminated
Jul 24
Waning Gibbous
Jul 29
Last Quarter
Aug 6
New
Aug 14
First Quarter
Aug 20
Full

Hourly Weather History & Observations

Time (CDT) Temp. Heat Index Dew Point Humidity Pressure Visibility Wind Dir Wind Speed Gust Speed Precip Events Conditions
12:52 AM 64.9 °F - 57.9 °F 78% 29.96 in - North 3.5 mph - N/A   Unknown
1:52 AM 64.0 °F - 57.9 °F 80% 29.95 in - North 3.5 mph - N/A   Unknown
2:52 AM 64.0 °F - 57.9 °F 80% 29.97 in - Calm Calm - N/A   Unknown
3:52 AM 61.0 °F - 57.9 °F 90% 29.98 in - Calm Calm - N/A   Unknown
4:52 AM 60.1 °F - 57.0 °F 90% 29.99 in - Calm Calm - N/A   Unknown
5:52 AM 60.1 °F - 57.0 °F 90% 30.00 in - Calm Calm - N/A   Unknown
6:52 AM 62.1 °F - 57.9 °F 86% 30.01 in - Calm Calm - N/A   Unknown
7:52 AM 66.0 °F - 59.0 °F 78% 30.01 in - Calm Calm - N/A   Unknown
8:52 AM 70.0 °F - 59.0 °F 68% 30.02 in - ENE 4.6 mph - N/A   Unknown
9:52 AM 73.9 °F - 60.1 °F 62% 30.02 in - Calm Calm - N/A   Unknown
10:52 AM 77.0 °F - 60.1 °F 56% 30.02 in - NNE 6.9 mph - N/A   Unknown
11:52 AM 78.1 °F - 60.1 °F 54% 30.03 in - Variable 5.8 mph - N/A   Unknown
12:52 PM 80.1 °F 80.6 °F 57.9 °F 47% 30.03 in - North 6.9 mph - N/A   Unknown
1:52 PM 81.0 °F 81.1 °F 57.9 °F 45% 30.02 in - NNW 5.8 mph - N/A   Unknown
2:52 PM 82.0 °F 81.7 °F 57.0 °F 42% 30.01 in - North 6.9 mph - N/A   Unknown
3:52 PM 84.0 °F 83.3 °F 57.0 °F 40% 30.01 in - Variable 4.6 mph - N/A   Unknown
4:52 PM 84.0 °F 83.0 °F 55.9 °F 38% 30.00 in - NNE 10.4 mph - N/A   Unknown
5:52 PM 82.9 °F 82.1 °F 55.9 °F 39% 30.00 in - Variable 5.8 mph - N/A   Unknown
6:52 PM 81.0 °F 80.8 °F 55.9 °F 42% 30.00 in - NE 5.8 mph - N/A   Unknown
7:52 PM 79.0 °F - 59.0 °F 50% 30.00 in - NNE 3.5 mph - N/A   Unknown
8:52 PM 75.0 °F - 57.9 °F 55% 30.01 in - NNE 3.5 mph - N/A   Unknown
9:52 PM 69.1 °F - 61.0 °F 75% 30.02 in - NE 3.5 mph - N/A   Unknown
10:52 PM 66.9 °F - 61.0 °F 81% 30.04 in - Calm Calm - N/A   Unknown
11:52 PM 64.9 °F - 60.1 °F 84% 30.05 in - Calm Calm - N/A   Unknown